[[{"header":{"parameterUnit":"m.s-1","parameterCategory":2,"la1":30.2991,"la2":30.254,"lo1":-89.0895,"lo2":-89.0444,"dy":0.0017,"dx":0.0017,"nx":28,"ny":28,"refTime":"2025-04-18T03:00:00:Z","depth":"0","parameterNumber":2,"parameterNumberName":"U-component_of_CURRENTS"},"data":[0,0,0,0,0,0,0,0,0,0,0,0,0,0,0,0,0,0,0,0,0,0,0,0,0,0,0,0,0,0,0,0,0,0,0,0,0,0,0,0,0,0,0,0,0,0,0,0,0,0,0,0,0,0,0,0,0,0,0.2007,0.2007,0,0.2015,0.2015,0.2016,0.2004,0.2003,0.2003,0.2002,0.2017,0.2018,0.2019,0,0,0,0,0,0,0,0,0,0,0,0,0,0.2005,0.2005,0.2007,0.2007,0.2007,0.2015,0.2015,0.2016,0.2004,0.2003,0.2003,0.2002,0.2017,0.2018,0.2019,0,0,0,0,0,0,0,0,0,0,0,0,0,0.2009,0.2005,0.2007,0.2002,0.2002,0.2015,0.2015,0.2016,0.2004,0.2003,0.2003,0.2002,0.2017,0.2018,0.2019,0.2037,0,0,0.2022,0.2023,0,0,0,0,0,0,0,0,0.2008,0.2008,0.2003,0.2003,0.2002,0.2008,0.2021,0.2023,0.2004,0.2003,0.2002,0.2002,0.2016,0.2017,0.2019,0.2038,0.2039,0.2023,0.2023,0.2024,0.2024,0,0,0,0,0,0,0,0.2008,0.2008,0.2009,0.2003,0.2003,0.2009,0.2009,0.2021,0.2012,0.2003,0.2002,0.2004,0.2015,0.2018,0.2019,0.2039,0.2023,0.2024,0.2024,0.2025,0.2093,0.2094,0,0,0,0,0,0,0.2007,0.2008,0.2009,0.201,0.2005,0.2009,0.2009,0.2007,0.2012,0.2012,0.2004,0.2003,0.2016,0.2018,0.202,0.2059,0.2024,0.2025,0.2025,0.2092,0.2094,0.2095,0,0,0,0,0,0,0.2007,0.2007,0.2009,0.201,0.201,0.201,0.2007,0.2007,0.2009,0.2013,0.2013,0.2007,0.2016,0.2018,0.2036,0.2059,0.2025,0.2026,0.2091,0.2093,0.2094,0.2127,0,0,0,0,0,0,0.2007,0.2007,0.2007,0.201,0.201,0.202,0.2008,0.2008,0.2012,0.201,0.2016,0.2016,0.2016,0.2034,0.2037,0.206,0.2027,0.2089,0.2092,0.2094,0.2124,0.2129,0.2134,0,0,0,0,0,0.2007,0.2008,0.2007,0.2007,0.201,0.2021,0.2022,0.202,0.2013,0.2019,0.2023,0.2016,0.205,0.2036,0.2039,0.2063,0.2088,0.2091,0.2093,0.2122,0.2128,0.2134,0,0,0,0,0,0,0.2007,0.2007,0.2006,0.2007,0.2016,0.2019,0.2024,0.2023,0.2031,0.2029,0.2028,0.203,0.2062,0.2056,0.204,0.209,0.207,0.2073,0.209,0.2096,0.2101,0.2111,0.2028,0,0,0,0,0,0.2008,0.2008,0.2014,0.2016,0.202,0.2023,0.2028,0.2028,0.2034,0.2036,0.204,0.205,0.2076,0.2079,0.2098,0.2117,0.214,0.2136,0.214,0.2144,0.2156,0.2225,0.2237,0.2103,0.2103,0.2103,0,0,0.2009,0.201,0.2009,0.2016,0.2021,0.2031,0.2024,0.2034,0.2045,0.2039,0.2054,0.2072,0.2088,0.2117,0.2129,0.2111,0.2192,0.2148,0.2151,0.216,0.2229,0.2242,0.2254,0.2105,0.2105,0.2104,0,0,0.2011,0.2012,0.2014,0.2023,0.2034,0.2039,0.2043,0.2051,0.2058,0.208,0.2086,0.2117,0.2136,0.2157,0.217,0.2212,0.2224,0.2215,0.2237,0.2304,0.2316,0.2327,0.2361,0.2375,0.2206,0.2207,0.2207,0,0.2013,0.2012,0.2018,0.2027,0.2036,0.2043,0.2053,0.2065,0.2079,0.2099,0.209,0.2158,0.2162,0.2216,0.2226,0.2225,0.2254,0.2212,0.2312,0.2323,0.2334,0.2366,0.238,0.2208,0.2208,0.2208,0.2208,0,0.2016,0.202,0.2025,0.2035,0.2051,0.206,0.208,0.2098,0.211,0.2129,0.2191,0.2211,0.2254,0.2259,0.2251,0.2327,0.2321,0.2319,0.2297,0.2349,0.2379,0.2394,0.2211,0.221,0.221,0.2209,0,0,0.2004,0.2022,0.2022,0.2028,0.2055,0.2064,0.2099,0.2135,0.2164,0.2197,0.2253,0.2295,0.2318,0.2335,0.2342,0.2384,0.2469,0.2377,0.238,0.2411,0.2604,0.2512,0.2519,0.249,0.2493,0.2496,0.2591,0,0.2002,0.2013,0.2029,0.2044,0.2051,0.2082,0.2116,0.2156,0.2194,0.225,0.2302,0.2358,0.2344,0.2373,0.2421,0.2468,0.2512,0.2442,0.255,0.2552,0.2465,0.2535,0.2422,0.249,0.2605,0.2607,0.2609,0,0.1994,0.2004,0.2017,0.205,0.2058,0.2073,0.2134,0.2167,0.2254,0.2293,0.237,0.2416,0.2497,0.2476,0.2596,0.2555,0.2585,0.2611,0.2615,0.2531,0.2488,0.246,0.2512,0.2481,0.2632,0.263,0.2628,0,0.197,0.1992,0.2,0.2009,0.2052,0.2074,0.2104,0.2181,0.2228,0.2329,0.2391,0.2488,0.2558,0.2625,0.2679,0.2652,0.2804,0.2774,0.272,0.2713,0.2638,0.2618,0.2673,0.2867,0.2867,0.2867,0.2866,0,0.1955,0.1959,0.1985,0.1987,0.2012,0.2055,0.2104,0.2152,0.2251,0.2324,0.2413,0.2498,0.2605,0.27,0.2725,0.2772,0.2851,0.2744,0.2745,0.2641,0.2622,0.2605,0.2592,0.287,0.2869,0.2869,0.2868,0,0.1923,0.1939,0.1946,0.1984,0.1997,0.2015,0.2092,0.2134,0.2234,0.234,0.2385,0.254,0.2652,0.2736,0.285,0.2828,0.2787,0.2868,0.2719,0.2699,0.2566,0.2558,0.2421,0.2359,0.2817,0.2815,0.2814,0,0.1907,0.1905,0.193,0.1934,0.1946,0.1983,0.2017,0.2111,0.2171,0.2359,0.2415,0.2569,0.2663,0.2789,0.2778,0.2811,0.2748,0.2714,0.263,0.2559,0.2554,0.2379,0.2326,0.2548,0.2544,0.2541,0.2539,0,0.1876,0.188,0.1884,0.1894,0.1911,0.1944,0.2003,0.2054,0.2186,0.2288,0.243,0.2523,0.2638,0.2631,0.2665,0.266,0.2555,0.2653,0.2647,0.2402,0.2154,0.2093,0.2468,0.2515,0.2517,0.2519,0.252,0.2521,0.1847,0.1839,0.1841,0.1846,0.1868,0.19,0.1924,0.2007,0.2101,0.224,0.2359,0.2443,0.2507,0.2524,0.2506,0.2401,0.2362,0.2332,0.2348,0.219,0.2062,0.2354,0.235,0.2352,0.2353,0.2354,0.2355,0,0.1803,0.1797,0.1796,0.1803,0.1812,0.1843,0.1911,0.1937,0.2023,0.2125,0.2225,0.227,0.2263,0.2286,0.2222,0.2135,0.1992,0.2093,0.1878,0.186,0.2206,0.213,0.1996,0.1996,0.1996,0.1996,0.1996,0.1997,0.178,0.1754,0.1751,0.1744,0.1756,0.1764,0.1793,0.184,0.1895,0.1945,0.1959,0.2011,0.2109,0.2114,0.2029,0.1981,0.1836,0.1678,0.1717,0.2042,0.2067,0.209,0.2017,0.1861,0.1861,0.1245,0.1241,0.1238]},{"header":{"parameterUnit":"m.s-1","parameterCategory":2,"la1":30.2991,"la2":30.254,"lo1":-89.0895,"lo2":-89.0444,"dy":0.0017,"dx":0.0017,"nx":28,"ny":28,"refTime":"2025-04-18T03:00:00:Z","depth":"0","parameterNumber":3,"parameterNumberName":"V-component_of_CURRENTS"},"data":[0,0,0,0,0,0,0,0,0,0,0,0,0,0,0,0,0,0,0,0,0,0,0,0,0,0,0,0,0,0,0,0,0,0,0,0,0,0,0,0,0,0,0,0,0,0,0,0,0,0,0,0,0,0,0,0,0,0,0.0257,0.0257,0,0.024,0.0239,0.0239,0.022,0.0219,0.0219,0.0219,0.0196,0.0196,0.0196,0,0,0,0,0,0,0,0,0,0,0,0,0,0.0257,0.0257,0.0257,0.0257,0.0257,0.024,0.0239,0.0239,0.022,0.0219,0.0219,0.0219,0.0196,0.0196,0.0196,0,0,0,0,0,0,0,0,0,0,0,0,0,0.025,0.0257,0.0257,0.0245,0.0244,0.024,0.0239,0.0239,0.022,0.0219,0.0219,0.0219,0.0197,0.0196,0.0196,0.02,0,0,0.0194,0.0194,0,0,0,0,0,0,0,0,0.025,0.025,0.0247,0.0246,0.0245,0.0232,0.0231,0.0226,0.022,0.0229,0.0219,0.0218,0.0208,0.0207,0.0204,0.0199,0.0198,0.0194,0.0194,0.0193,0.0193,0,0,0,0,0,0,0,0.0251,0.025,0.025,0.0247,0.0246,0.0235,0.0233,0.023,0.0221,0.0228,0.0227,0.0225,0.0207,0.0204,0.0203,0.0198,0.0194,0.0193,0.0193,0.0193,0.0197,0.0198,0,0,0,0,0,0,0.0255,0.0251,0.0251,0.025,0.0247,0.0235,0.0234,0.0236,0.0221,0.0218,0.0225,0.0224,0.0206,0.0204,0.0202,0.0221,0.0193,0.0193,0.0193,0.0197,0.0197,0.0198,0,0,0,0,0,0,0.0255,0.0255,0.0251,0.025,0.0249,0.0236,0.0238,0.0236,0.0233,0.0219,0.0216,0.0225,0.0205,0.0203,0.0204,0.0219,0.0193,0.0192,0.0196,0.0197,0.0198,0.0249,0,0,0,0,0,0,0.0255,0.0255,0.0259,0.025,0.0249,0.0254,0.0239,0.0236,0.0233,0.0231,0.0218,0.0215,0.0205,0.0204,0.0203,0.0218,0.0192,0.0196,0.0197,0.0197,0.0247,0.0252,0.0255,0,0,0,0,0,0.0255,0.0265,0.0259,0.0259,0.0254,0.0255,0.0253,0.0242,0.0234,0.0237,0.0228,0.0216,0.0208,0.0205,0.0203,0.0218,0.0195,0.0196,0.0197,0.0245,0.0251,0.0255,0,0,0,0,0,0,0.0265,0.0263,0.0257,0.0265,0.0261,0.0252,0.0254,0.0246,0.0241,0.0239,0.0223,0.022,0.0226,0.0213,0.0209,0.022,0.0199,0.02,0.0236,0.0241,0.0246,0.0266,0.0191,0,0,0,0,0,0.027,0.0276,0.027,0.0276,0.0276,0.0265,0.0263,0.0257,0.0251,0.0248,0.0239,0.023,0.0229,0.0228,0.0222,0.023,0.0224,0.0237,0.0241,0.0245,0.026,0.0268,0.0275,0.0201,0.0201,0.0201,0,0,0.0274,0.0274,0.0276,0.0278,0.0274,0.0284,0.0263,0.0265,0.0276,0.0247,0.0258,0.0244,0.0233,0.0242,0.0244,0.0234,0.026,0.0246,0.025,0.0263,0.027,0.0277,0.0283,0.0202,0.0201,0.0201,0,0,0.0291,0.0287,0.03,0.0302,0.0301,0.0298,0.03,0.0294,0.0293,0.03,0.0283,0.0283,0.0276,0.0276,0.0275,0.0299,0.0281,0.0291,0.0332,0.034,0.0346,0.0352,0.0343,0.0348,0.0294,0.0294,0.0295,0,0.0296,0.0312,0.0303,0.0318,0.0325,0.0307,0.0326,0.0326,0.032,0.0329,0.031,0.0317,0.0298,0.0324,0.0326,0.0312,0.0306,0.0315,0.0347,0.0352,0.0358,0.0347,0.0352,0.0297,0.0297,0.0296,0.0296,0,0.0325,0.0337,0.0346,0.0361,0.0367,0.0379,0.038,0.0388,0.0382,0.0382,0.0402,0.0382,0.0391,0.0378,0.0358,0.0386,0.0366,0.0351,0.0338,0.0368,0.0355,0.0359,0.0301,0.03,0.0299,0.0298,0,0,0.0338,0.0362,0.0365,0.0385,0.0393,0.0406,0.0427,0.0448,0.0477,0.0465,0.0508,0.0487,0.0479,0.0476,0.0454,0.0452,0.0466,0.0417,0.0416,0.0415,0.0473,0.0432,0.0432,0.0457,0.0458,0.0459,0.0446,0,0.0363,0.0404,0.0407,0.0449,0.0472,0.0472,0.0501,0.0517,0.0525,0.0561,0.0549,0.0576,0.0517,0.053,0.0519,0.0489,0.048,0.047,0.0438,0.0437,0.0403,0.0437,0.0461,0.0449,0.045,0.045,0.0451,0,0.0392,0.0418,0.0461,0.0509,0.052,0.0542,0.0593,0.0619,0.0656,0.0667,0.0685,0.0679,0.0687,0.0633,0.0598,0.0595,0.0539,0.0502,0.0501,0.0452,0.0404,0.042,0.0456,0.0418,0.0456,0.0456,0.0455,0,0.0414,0.0458,0.0498,0.0511,0.0558,0.0584,0.0613,0.0651,0.0697,0.0743,0.079,0.0781,0.0806,0.0742,0.0657,0.0634,0.0613,0.0574,0.0482,0.0478,0.0488,0.0482,0.0493,0.0548,0.0548,0.0548,0.0548,0,0.0444,0.0477,0.0514,0.0538,0.0603,0.0622,0.0696,0.0724,0.079,0.0874,0.0854,0.0922,0.0836,0.0813,0.0707,0.0613,0.0652,0.0502,0.0481,0.0503,0.0499,0.0456,0.0416,0.0548,0.0548,0.0548,0.0548,0,0.0464,0.0483,0.0537,0.0592,0.0615,0.0665,0.0754,0.0815,0.0867,0.0983,0.1011,0.1041,0.101,0.0902,0.0809,0.0692,0.0566,0.0544,0.0565,0.0545,0.0405,0.0366,0.034,0.0327,0.0446,0.0445,0.0444,0,0.0479,0.0506,0.0577,0.0617,0.0643,0.0718,0.0781,0.0848,0.0931,0.1065,0.1139,0.1148,0.1176,0.1012,0.0812,0.0628,0.056,0.0512,0.0466,0.0415,0.0357,0.0337,0.0327,0.0495,0.0495,0.0495,0.0495,0,0.051,0.053,0.0574,0.0656,0.0722,0.0812,0.0912,0.0995,0.1106,0.1222,0.136,0.1391,0.124,0.1085,0.0815,0.0673,0.0496,0.0498,0.0461,0.0412,0.038,0.0351,0.0471,0.0492,0.0493,0.0493,0.0493,0.0493,0.0531,0.0565,0.062,0.0699,0.0782,0.0902,0.1003,0.1139,0.1301,0.1506,0.1509,0.1587,0.1346,0.0988,0.0789,0.0476,0.0465,0.0388,0.0349,0.0337,0.0318,0.0416,0.0399,0.0398,0.0398,0.0398,0.0398,0,0.0551,0.0591,0.0663,0.0764,0.0862,0.0907,0.1091,0.1227,0.1449,0.1613,0.1737,0.1662,0.1361,0.1039,0.0611,0.0395,0.0325,0.0286,0.029,0.0288,0.04,0.0397,0.0362,0.0362,0.0362,0.0362,0.0362,0.0363,0.0562,0.0619,0.0655,0.0805,0.0892,0.1058,0.1177,0.1404,0.1567,0.181,0.1881,0.1904,0.1701,0.092,0.0462,0.0336,0.0238,0.0172,0.0127,0.0223,0.0231,0.0239,0.023,0.016,0.016,0.0069,0.0068,0.0067]}],[{"header":{"parameterUnit":"m.s-1","parameterCategory":2,"la1":30.2991,"la2":30.254,"lo1":-89.0895,"lo2":-89.0444,"dy":0.0017,"dx":0.0017,"nx":28,"ny":28,"refTime":"2025-04-18T03:00:00:Z","depth":"2","parameterNumber":2,"parameterNumberName":"U-component_of_CURRENTS"},"data":[0,0,0,0,0,0,0,0,0,0,0,0,0,0,0,0,0,0,0,0,0,0,0,0,0,0,0,0,0,0,0,0,0,0,0,0,0,0,0,0,0,0,0,0,0,0,0,0,0,0,0,0,0,0,0,0,0,0,0.1894,0.1895,0,0.1905,0.1905,0.1905,0.19,0.19,0.19,0.19,0.192,0.1921,0.1922,0,0,0,0,0,0,0,0,0,0,0,0,0,0.189,0.189,0.1894,0.1895,0.1895,0.1905,0.1905,0.1905,0.19,0.19,0.19,0.1899,0.192,0.1921,0.1922,0,0,0,0,0,0,0,0,0,0,0,0,0,0.1894,0.189,0.1894,0.1894,0.1894,0.1905,0.1905,0.1905,0.19,0.19,0.19,0.1899,0.192,0.1921,0.1922,0.1935,0,0,0.1925,0.1926,0,0,0,0,0,0,0,0,0.1894,0.1895,0.1894,0.1894,0.1894,0.1902,0.1911,0.1916,0.19,0.1897,0.19,0.1899,0.1916,0.1917,0.1919,0.1936,0.1937,0.1926,0.1926,0.1927,0.1927,0,0,0,0,0,0,0,0.1894,0.1894,0.1898,0.1894,0.1894,0.19,0.19,0.1912,0.1908,0.1897,0.1897,0.19,0.1916,0.1918,0.1919,0.1937,0.1925,0.1926,0.1927,0.1928,0.1994,0.1995,0,0,0,0,0,0,0.1893,0.1894,0.1897,0.1898,0.1894,0.1901,0.1901,0.1899,0.1907,0.1908,0.19,0.1899,0.1916,0.1918,0.192,0.1963,0.1927,0.1928,0.1928,0.1993,0.1994,0.1996,0,0,0,0,0,0,0.1893,0.1893,0.1897,0.1897,0.1898,0.1901,0.1899,0.1899,0.1906,0.1909,0.191,0.1907,0.1916,0.1918,0.1938,0.1963,0.1928,0.1929,0.1992,0.1994,0.1995,0.2032,0,0,0,0,0,0,0.1893,0.1893,0.1895,0.1897,0.1898,0.1909,0.1899,0.19,0.1908,0.1907,0.1916,0.1917,0.1916,0.1936,0.1939,0.1964,0.193,0.199,0.1993,0.1995,0.2029,0.2034,0.2039,0,0,0,0,0,0.1893,0.1895,0.1895,0.1896,0.19,0.191,0.1911,0.1912,0.1908,0.1915,0.1922,0.1917,0.1951,0.1938,0.1941,0.1966,0.1989,0.1992,0.1994,0.2027,0.2033,0.2039,0,0,0,0,0,0,0.1894,0.1895,0.1895,0.1897,0.1906,0.1909,0.1916,0.1917,0.1927,0.1928,0.1928,0.193,0.1964,0.1957,0.1942,0.1992,0.1971,0.1974,0.1995,0.2001,0.2006,0.2014,0.1931,0,0,0,0,0,0.1896,0.1898,0.1902,0.1906,0.1911,0.1916,0.1921,0.1923,0.193,0.1934,0.194,0.1951,0.1976,0.198,0.1999,0.2018,0.2036,0.2038,0.2043,0.2047,0.2057,0.2118,0.213,0.2004,0.2004,0.2004,0,0,0.1898,0.1899,0.19,0.1907,0.1913,0.1922,0.1918,0.193,0.1941,0.1936,0.1955,0.1974,0.1988,0.2018,0.2031,0.2013,0.209,0.205,0.2054,0.2061,0.2122,0.2135,0.2146,0.2006,0.2005,0.2005,0,0,0.1902,0.1905,0.1908,0.1917,0.1929,0.1933,0.1938,0.1947,0.1957,0.198,0.1987,0.2019,0.204,0.2059,0.2071,0.2114,0.2123,0.2119,0.2141,0.2201,0.2212,0.2222,0.2248,0.2261,0.2111,0.2111,0.2111,0,0.1905,0.1906,0.1912,0.1921,0.193,0.1938,0.1949,0.1961,0.1976,0.1998,0.1992,0.206,0.2065,0.2117,0.2128,0.2127,0.2152,0.2116,0.2208,0.2218,0.2228,0.2253,0.2266,0.2113,0.2113,0.2112,0.2112,0,0.1909,0.1915,0.192,0.1931,0.1945,0.1956,0.1974,0.1994,0.201,0.203,0.2092,0.2111,0.2154,0.2161,0.2154,0.2226,0.2218,0.2216,0.2193,0.2243,0.2266,0.2279,0.2116,0.2115,0.2114,0.2114,0,0,0.1899,0.1918,0.1919,0.1925,0.1951,0.196,0.1994,0.2029,0.206,0.2095,0.2148,0.2193,0.2218,0.2234,0.2241,0.2279,0.2357,0.2272,0.2275,0.2299,0.2475,0.2388,0.2393,0.2377,0.238,0.2382,0.2459,0,0.1899,0.191,0.1925,0.1941,0.1948,0.1978,0.2011,0.2051,0.209,0.2143,0.2194,0.225,0.2241,0.2272,0.2314,0.2356,0.2395,0.2335,0.2423,0.2425,0.2343,0.2407,0.2192,0.2236,0.2471,0.2474,0.2475,0,0.1893,0.1902,0.1916,0.1948,0.1956,0.1972,0.2032,0.2064,0.2148,0.2187,0.2262,0.2305,0.2381,0.2363,0.2471,0.2436,0.2462,0.2483,0.2486,0.2403,0.2362,0.2227,0.225,0.2497,0.2495,0.2493,0.2492,0,0.1871,0.1893,0.1902,0.1911,0.1952,0.1975,0.2005,0.2081,0.2126,0.2225,0.2285,0.2374,0.2442,0.2498,0.2542,0.2523,0.2648,0.2626,0.257,0.2563,0.2396,0.2369,0.2708,0.2708,0.2707,0.2707,0.2707,0,0.1857,0.1862,0.189,0.1893,0.1919,0.1961,0.2011,0.206,0.2153,0.2223,0.231,0.2389,0.2486,0.2565,0.258,0.2615,0.2687,0.2591,0.259,0.2399,0.2373,0.2609,0.2597,0.271,0.2709,0.2709,0.2708,0,0.1828,0.1844,0.1853,0.1891,0.1906,0.1926,0.2002,0.2044,0.2143,0.2243,0.2286,0.2434,0.2532,0.2595,0.2691,0.2668,0.2699,0.2688,0.2439,0.2407,0.2562,0.255,0.2643,0.2641,0.2639,0.2637,0.2636,0,0.1813,0.1813,0.1841,0.1845,0.186,0.1899,0.1933,0.2026,0.2083,0.2263,0.2313,0.2454,0.2525,0.2622,0.26,0.2608,0.2676,0.2418,0.2338,0.2572,0.2562,0.2553,0.2545,0.2129,0.2123,0.2119,0.2116,0,0.1784,0.1792,0.1797,0.1809,0.1829,0.1859,0.192,0.1966,0.2094,0.2184,0.2308,0.2378,0.2468,0.2387,0.24,0.2373,0.2394,0.2329,0.2671,0.217,0.2092,0.208,0.2088,0.2077,0.208,0.2083,0.2085,0.2087,0.1758,0.1751,0.1756,0.1764,0.1787,0.1815,0.1839,0.1915,0.1994,0.2102,0.2204,0.2224,0.2244,0.2146,0.2075,0.2015,0.2186,0.2088,0.21,0.2117,0.2036,0.1958,0.1901,0.1904,0.1906,0.1908,0.191,0,0.1715,0.1713,0.1713,0.172,0.172,0.176,0.1826,0.1829,0.1897,0.1957,0.2017,0.1834,0.1774,0.1785,0.1629,0.1622,0.1592,0.1556,0.1503,0.1544,0.1579,0.1469,0.1185,0.1182,0.118,0.1178,0,0,0.1692,0.1668,0.1664,0.1647,0.1661,0.1675,0.1705,0.1707,0.1726,0.1679,0.1643,0.173,0.1755,0.1461,0.1411,0.1275,0.14,0.1218,0.1804,0.1785,0.1817,0.1893,0.177,0,0,0,0,0]},{"header":{"parameterUnit":"m.s-1","parameterCategory":2,"la1":30.2991,"la2":30.254,"lo1":-89.0895,"lo2":-89.0444,"dy":0.0017,"dx":0.0017,"nx":28,"ny":28,"refTime":"2025-04-18T03:00:00:Z","depth":"2","parameterNumber":3,"parameterNumberName":"V-component_of_CURRENTS"},"data":[0,0,0,0,0,0,0,0,0,0,0,0,0,0,0,0,0,0,0,0,0,0,0,0,0,0,0,0,0,0,0,0,0,0,0,0,0,0,0,0,0,0,0,0,0,0,0,0,0,0,0,0,0,0,0,0,0,0,0.0138,0.0137,0,0.0119,0.0119,0.0119,0.0104,0.0104,0.0103,0.0103,0.0082,0.0081,0.0081,0,0,0,0,0,0,0,0,0,0,0,0,0,0.0139,0.0139,0.0138,0.0137,0.0137,0.0119,0.0119,0.0119,0.0104,0.0104,0.0103,0.0103,0.0082,0.0081,0.0081,0,0,0,0,0,0,0,0,0,0,0,0,0,0.0131,0.0139,0.0138,0.0128,0.0127,0.0119,0.0119,0.0119,0.0104,0.0104,0.0103,0.0103,0.0082,0.0081,0.0081,0.008,0,0,0.0079,0.0078,0,0,0,0,0,0,0,0,0.0131,0.0131,0.0129,0.0128,0.0127,0.0114,0.0112,0.0106,0.0104,0.0112,0.0103,0.0103,0.0092,0.0091,0.0087,0.0079,0.0078,0.0079,0.0078,0.0078,0.0078,0,0,0,0,0,0,0,0.0132,0.0131,0.013,0.0129,0.0128,0.0117,0.0116,0.011,0.0103,0.0111,0.011,0.0109,0.0092,0.0088,0.0087,0.0078,0.0079,0.0078,0.0078,0.0077,0.0076,0.0076,0,0,0,0,0,0,0.0136,0.0132,0.0131,0.0129,0.0129,0.0117,0.0116,0.0118,0.0103,0.0101,0.0109,0.0108,0.0089,0.0088,0.0086,0.0104,0.0078,0.0077,0.0077,0.0075,0.0076,0.0076,0,0,0,0,0,0,0.0136,0.0136,0.0131,0.013,0.0129,0.0118,0.012,0.0118,0.0117,0.0102,0.0099,0.0111,0.0089,0.0087,0.0086,0.0103,0.0077,0.0076,0.0075,0.0076,0.0076,0.0128,0,0,0,0,0,0,0.0137,0.0137,0.014,0.0131,0.0129,0.0133,0.012,0.0118,0.0116,0.0115,0.0103,0.01,0.0089,0.0088,0.0086,0.0101,0.0076,0.0075,0.0075,0.0076,0.0126,0.0131,0.0134,0,0,0,0,0,0.0137,0.0145,0.0141,0.0141,0.0135,0.0134,0.0132,0.0123,0.0117,0.0121,0.0112,0.0101,0.0091,0.0088,0.0085,0.0101,0.0074,0.0075,0.0076,0.0124,0.013,0.0134,0,0,0,0,0,0,0.0147,0.0144,0.0139,0.0146,0.0142,0.0131,0.0134,0.0127,0.0123,0.0122,0.0106,0.0103,0.0109,0.0095,0.0092,0.0101,0.008,0.0081,0.0118,0.0123,0.0127,0.0145,0.0075,0,0,0,0,0,0.0151,0.0157,0.0151,0.0156,0.0156,0.0145,0.0144,0.0139,0.0133,0.013,0.0121,0.0112,0.011,0.0109,0.0102,0.0108,0.0097,0.0115,0.0119,0.0123,0.0135,0.0134,0.014,0.0079,0.0079,0.0079,0,0,0.0156,0.0155,0.0158,0.0158,0.0154,0.0164,0.0144,0.0147,0.0157,0.0129,0.0139,0.0127,0.0114,0.0121,0.0122,0.0113,0.0132,0.0124,0.0127,0.0138,0.0136,0.0142,0.0147,0.008,0.0079,0.0079,0,0,0.0171,0.0169,0.018,0.0182,0.0181,0.0177,0.018,0.0174,0.0174,0.0181,0.0164,0.0164,0.0156,0.0154,0.0151,0.0173,0.0153,0.0167,0.0205,0.0205,0.021,0.0215,0.0201,0.0204,0.017,0.017,0.017,0,0.0177,0.0192,0.0183,0.0197,0.0203,0.0187,0.0205,0.0204,0.0198,0.0207,0.0191,0.0193,0.0176,0.0196,0.0199,0.0185,0.0175,0.0189,0.0212,0.0216,0.022,0.0204,0.0207,0.0173,0.0173,0.0172,0.0172,0,0.0203,0.0216,0.0223,0.0238,0.0243,0.0255,0.0254,0.0262,0.0259,0.0258,0.0274,0.0254,0.026,0.0249,0.023,0.0252,0.0232,0.0217,0.0203,0.0229,0.0211,0.0213,0.0177,0.0176,0.0175,0.0174,0,0,0.0217,0.0238,0.0242,0.0261,0.0268,0.028,0.0299,0.0317,0.0344,0.0332,0.0368,0.035,0.0341,0.0338,0.0316,0.0309,0.0316,0.0277,0.0275,0.0269,0.0306,0.0276,0.0274,0.0305,0.0306,0.0307,0.0279,0,0.0242,0.0279,0.0281,0.032,0.0342,0.0341,0.0368,0.0382,0.0389,0.0418,0.0403,0.0426,0.0376,0.0388,0.0373,0.0338,0.0324,0.0324,0.0276,0.0274,0.025,0.0277,0.0274,0.0248,0.0281,0.0281,0.0281,0,0.0269,0.0293,0.0334,0.0376,0.0386,0.0408,0.0454,0.0478,0.0507,0.0517,0.053,0.052,0.0521,0.0473,0.0428,0.0431,0.0374,0.0335,0.0333,0.0291,0.0248,0.0227,0.025,0.0284,0.0284,0.0284,0.0284,0,0.0291,0.0332,0.0369,0.0381,0.0423,0.0448,0.0476,0.0509,0.0551,0.059,0.0631,0.0612,0.0633,0.0561,0.0473,0.0458,0.0413,0.0383,0.0299,0.0295,0.0277,0.027,0.0348,0.0348,0.0348,0.0348,0.0348,0,0.0319,0.0351,0.0385,0.0408,0.0469,0.0486,0.0555,0.0582,0.0639,0.0715,0.0692,0.075,0.0658,0.062,0.0512,0.0415,0.0443,0.0315,0.0294,0.0292,0.0288,0.0307,0.0303,0.0347,0.0347,0.0347,0.0347,0,0.0339,0.0357,0.0408,0.0459,0.0481,0.0529,0.0612,0.0669,0.0717,0.082,0.0846,0.0864,0.0823,0.0703,0.0596,0.0486,0.038,0.033,0.0327,0.0305,0.0249,0.0248,0.0248,0.0247,0.0246,0.0245,0.0244,0,0.0353,0.0379,0.0446,0.0485,0.051,0.0582,0.0642,0.0704,0.0781,0.09,0.0966,0.0961,0.0966,0.0785,0.0596,0.0405,0.0377,0.0271,0.024,0.0264,0.0243,0.0243,0.0243,0.023,0.023,0.0229,0.0229,0,0.0381,0.0401,0.0443,0.0523,0.0587,0.0672,0.0768,0.0844,0.0947,0.1046,0.1161,0.1169,0.1011,0.0828,0.0561,0.0424,0.0299,0.0253,0.0298,0.0254,0.0245,0.0225,0.0226,0.0223,0.0224,0.0224,0.0225,0.0225,0.04,0.0433,0.0486,0.0565,0.0645,0.076,0.0858,0.0981,0.1125,0.129,0.1277,0.1285,0.1064,0.072,0.0491,0.0255,0.0281,0.018,0.0183,0.0187,0.0188,0.0178,0.0142,0.0142,0.0142,0.0142,0.0142,0,0.0418,0.0459,0.0528,0.0626,0.0717,0.0768,0.0944,0.1058,0.1258,0.1358,0.144,0.119,0.0975,0.0714,0.0369,0.0163,0.0143,0.0081,0.0106,0.0113,0.0119,0.0117,0.0052,0.0051,0.005,0.005,0,0,0.0429,0.0483,0.0518,0.0661,0.0748,0.0917,0.1035,0.1216,0.133,0.1431,0.1423,0.1364,0.1038,0.0758,0.0475,0.0274,0.0241,0.0222,0.0318,0.039,0.0399,0.0198,0.0206,0,0,0,0,0]}],[{"header":{"parameterUnit":"m.s-1","parameterCategory":2,"la1":30.2991,"la2":30.254,"lo1":-89.0895,"lo2":-89.0444,"dy":0.0017,"dx":0.0017,"nx":28,"ny":28,"refTime":"2025-04-18T03:00:00:Z","depth":"4","parameterNumber":2,"parameterNumberName":"U-component_of_CURRENTS"},"data":[0,0,0,0,0,0,0,0,0,0,0,0,0,0,0,0,0,0,0,0,0,0,0,0,0,0,0,0,0,0,0,0,0,0,0,0,0,0,0,0,0,0,0,0,0,0,0,0,0,0,0,0,0,0,0,0,0,0,0.1128,0.1129,0,0.1153,0.1153,0.1153,0.1185,0.1185,0.1186,0.1187,0.122,0.122,0.122,0,0,0,0,0,0,0,0,0,0,0,0,0,0.1094,0.1094,0.1128,0.1129,0.1129,0.1153,0.1153,0.1153,0.1184,0.1185,0.1186,0.1187,0.122,0.122,0.122,0,0,0,0,0,0,0,0,0,0,0,0,0,0.1111,0.1094,0.1128,0.1149,0.1151,0.1153,0.1153,0.1153,0.1184,0.1185,0.1186,0.1187,0.122,0.122,0.1221,0.1203,0,0,0.1222,0.1222,0,0,0,0,0,0,0,0,0.111,0.1112,0.1145,0.1148,0.115,0.1168,0.1154,0.1171,0.1184,0.117,0.1187,0.1188,0.1204,0.1206,0.1205,0.1204,0.1206,0.1222,0.1222,0.1222,0.1222,0,0,0,0,0,0,0,0.1109,0.1111,0.1136,0.1146,0.1149,0.1153,0.1156,0.1157,0.118,0.1171,0.1174,0.1179,0.1205,0.1205,0.1206,0.1206,0.1222,0.1222,0.1222,0.1222,0.1275,0.1276,0,0,0,0,0,0,0.1109,0.111,0.1135,0.1137,0.1134,0.1153,0.1156,0.116,0.1179,0.1184,0.1178,0.1181,0.1204,0.1206,0.1208,0.1262,0.1222,0.1223,0.1223,0.1273,0.1275,0.1276,0,0,0,0,0,0,0.1108,0.1111,0.1134,0.1126,0.1129,0.1152,0.1156,0.116,0.1188,0.1185,0.119,0.1206,0.1205,0.1207,0.1233,0.1261,0.1223,0.1223,0.1272,0.1274,0.1276,0.1323,0,0,0,0,0,0,0.1107,0.111,0.1125,0.1126,0.113,0.1154,0.1155,0.116,0.1189,0.1193,0.1209,0.1212,0.1206,0.1233,0.1234,0.1261,0.1223,0.1271,0.1273,0.1275,0.132,0.1326,0.1332,0,0,0,0,0,0.1106,0.1116,0.1126,0.113,0.1145,0.1155,0.1157,0.1175,0.1189,0.1204,0.1218,0.1213,0.1247,0.1234,0.1235,0.1263,0.127,0.1272,0.1275,0.1318,0.1325,0.1332,0,0,0,0,0,0,0.111,0.112,0.1131,0.1146,0.116,0.1161,0.1179,0.119,0.1212,0.1225,0.1223,0.1226,0.1262,0.1254,0.1239,0.1285,0.1259,0.1262,0.1292,0.1299,0.1305,0.1307,0.1224,0,0,0,0,0,0.1117,0.1131,0.1139,0.1155,0.1164,0.1178,0.1189,0.1202,0.1215,0.1227,0.1239,0.1253,0.1267,0.1278,0.1286,0.1306,0.1311,0.1326,0.1332,0.1337,0.1341,0.1382,0.1393,0.1285,0.1285,0.1285,0,0,0.1124,0.1133,0.1142,0.1158,0.1172,0.1183,0.1188,0.1213,0.1229,0.1226,0.1262,0.1276,0.1277,0.1304,0.132,0.1305,0.137,0.134,0.1344,0.1345,0.1386,0.1397,0.1406,0.1286,0.1286,0.1286,0,0,0.1134,0.1153,0.1165,0.1177,0.1203,0.1207,0.1221,0.124,0.126,0.129,0.1296,0.1329,0.1346,0.1355,0.1359,0.14,0.1401,0.1408,0.1438,0.1479,0.1488,0.1497,0.1513,0.1522,0.1409,0.1409,0.1409,0,0.1146,0.1157,0.1172,0.1185,0.12,0.1221,0.1237,0.1252,0.1281,0.1305,0.1313,0.1364,0.1369,0.1399,0.1417,0.1414,0.1431,0.1411,0.1487,0.1495,0.1503,0.1518,0.1527,0.1412,0.1411,0.1411,0.1411,0,0.1152,0.1173,0.1183,0.1205,0.1223,0.1242,0.1263,0.1292,0.1324,0.1346,0.1402,0.1415,0.1449,0.1457,0.145,0.1506,0.1498,0.1492,0.147,0.1517,0.1529,0.1538,0.1416,0.1415,0.1414,0.1413,0,0,0.1146,0.1181,0.1188,0.1202,0.1238,0.1247,0.1285,0.1322,0.1356,0.1399,0.1447,0.1482,0.1511,0.1518,0.1521,0.1552,0.1619,0.155,0.1551,0.1565,0.1702,0.1582,0.158,0.1635,0.1637,0.1638,0.1687,0,0.1151,0.1174,0.1195,0.1222,0.1235,0.127,0.1298,0.1341,0.1388,0.1438,0.1478,0.1528,0.1526,0.1557,0.159,0.1617,0.1647,0.1605,0.1654,0.1655,0.1543,0.1588,0.1645,0.1694,0.1696,0.1698,0.1699,0,0.1144,0.1163,0.1193,0.123,0.1241,0.1265,0.1325,0.1356,0.1431,0.1474,0.154,0.1577,0.1639,0.1628,0.1705,0.1684,0.1701,0.1712,0.1714,0.159,0.1552,0.1638,0.1715,0.1714,0.1713,0.1712,0.1711,0,0.1118,0.1158,0.1183,0.1196,0.1243,0.1274,0.1308,0.1379,0.1415,0.1513,0.156,0.1636,0.1681,0.173,0.1763,0.1753,0.1831,0.1817,0.1718,0.1709,0.1782,0.1772,0.1869,0.1868,0.1868,0.1868,0.1868,0,0.1097,0.1118,0.1177,0.1187,0.1222,0.1268,0.132,0.1369,0.1447,0.1492,0.1585,0.1623,0.1715,0.1766,0.1789,0.1778,0.186,0.1728,0.1719,0.1799,0.1791,0.1788,0.1778,0.187,0.187,0.1869,0.1869,0,0.1057,0.1097,0.1125,0.1186,0.1209,0.1239,0.1315,0.1343,0.1438,0.1501,0.154,0.164,0.1711,0.1773,0.1843,0.1793,0.1806,0.1778,0.1855,0.1848,0.165,0.1643,0.1678,0.1674,0.1671,0.1669,0.1666,0,0.1034,0.1047,0.1117,0.1135,0.1167,0.122,0.1246,0.1332,0.1361,0.149,0.1501,0.1611,0.1668,0.1672,0.1743,0.1776,0.1753,0.1737,0.1694,0.1646,0.1634,0.1631,0.1628,0.1661,0.1661,0.166,0.1659,0,0.0988,0.1027,0.1051,0.1092,0.1124,0.1142,0.1191,0.1196,0.129,0.1401,0.1442,0.1487,0.1549,0.16,0.1633,0.1651,0.1739,0.1704,0.171,0.167,0.1626,0.1617,0.1617,0.1648,0.165,0.1651,0.1651,0,0.096,0.0966,0.1006,0.1028,0.1063,0.104,0.1072,0.11,0.114,0.1283,0.1294,0.1418,0.1528,0.1535,0.1567,0.1577,0.1555,0.1494,0.1511,0.1524,0.145,0.1371,0.1311,0,0,0,0,0,0.0925,0.0919,0.0935,0.0933,0.0957,0.0971,0.102,0.1052,0.1149,0.1146,0.1217,0.1279,0.1337,0.1396,0.1378,0.1487,0.1548,0.1456,0.1483,0.1587,0.16,0.1527,0,0,0,0,0,0,0.0899,0.0917,0.0909,0.0848,0.0825,0.0825,0.0846,0.0904,0.0908,0.1034,0.1079,0.1196,0.1276,0.1346,0.1356,0.1373,0.136,0.1542,0.1538,0.158,0.1592,0.1602,0.1531,0,0,0,0,0]},{"header":{"parameterUnit":"m.s-1","parameterCategory":2,"la1":30.2991,"la2":30.254,"lo1":-89.0895,"lo2":-89.0444,"dy":0.0017,"dx":0.0017,"nx":28,"ny":28,"refTime":"2025-04-18T03:00:00:Z","depth":"4","parameterNumber":3,"parameterNumberName":"V-component_of_CURRENTS"},"data":[0,0,0,0,0,0,0,0,0,0,0,0,0,0,0,0,0,0,0,0,0,0,0,0,0,0,0,0,0,0,0,0,0,0,0,0,0,0,0,0,0,0,0,0,0,0,0,0,0,0,0,0,0,0,0,0,0,0,0.0005,0.0005,0,-0.0011,-0.0012,-0.0012,-0.0023,-0.0023,-0.0023,-0.0023,-0.0049,-0.005,-0.0051,0,0,0,0,0,0,0,0,0,0,0,0,0,0.001,0.001,0.0005,0.0005,0.0004,-0.0011,-0.0012,-0.0012,-0.0023,-0.0023,-0.0023,-0.0023,-0.0049,-0.005,-0.0051,0,0,0,0,0,0,0,0,0,0,0,0,0,0.0002,0.001,0.0005,-0.0003,-0.0003,-0.0011,-0.0012,-0.0012,-0.0023,-0.0023,-0.0023,-0.0023,-0.0049,-0.005,-0.0051,-0.0056,0,0,-0.0054,-0.0054,0,0,0,0,0,0,0,0,0.0003,0.0002,-0.0001,-0.0002,-0.0003,-0.0015,-0.002,-0.0027,-0.0022,-0.0016,-0.0023,-0.0023,-0.0039,-0.004,-0.0044,-0.0057,-0.0058,-0.0054,-0.0055,-0.0055,-0.0055,0,0,0,0,0,0,0,0.0003,0.0002,-0.0002,-0.0001,-0.0002,-0.0011,-0.0012,-0.0021,-0.0027,-0.0016,-0.0017,-0.0018,-0.0039,-0.0043,-0.0044,-0.0059,-0.0054,-0.0055,-0.0056,-0.0056,-0.0072,-0.0072,0,0,0,0,0,0,0.0007,0.0003,-0.0001,-0.0002,0.0,-0.0011,-0.0012,-0.0011,-0.0027,-0.0029,-0.0018,-0.0019,-0.0041,-0.0043,-0.0045,-0.0041,-0.0055,-0.0056,-0.0057,-0.0073,-0.0072,-0.0072,0,0,0,0,0,0,0.0007,0.0007,-0.0001,-0.0,-0.0001,-0.001,-0.001,-0.0011,-0.0013,-0.0028,-0.003,-0.0018,-0.0041,-0.0044,-0.005,-0.0042,-0.0057,-0.0057,-0.0073,-0.0073,-0.0072,-0.0039,0,0,0,0,0,0,0.0007,0.0007,0.0009,0.0,-0.0001,-0.0002,-0.001,-0.0012,-0.0014,-0.0014,-0.0028,-0.0031,-0.0041,-0.0048,-0.0051,-0.0044,-0.0058,-0.0073,-0.0073,-0.0072,-0.004,-0.0037,-0.0035,0,0,0,0,0,0.0007,0.0011,0.0009,0.0008,0.0001,-0.0002,-0.0003,-0.001,-0.0014,-0.0012,-0.0021,-0.0031,-0.0048,-0.0049,-0.0052,-0.0045,-0.0073,-0.0073,-0.0072,-0.0041,-0.0038,-0.0035,0,0,0,0,0,0,0.0013,0.001,0.0007,0.001,0.0006,-0.0003,-0.0003,-0.0008,-0.0014,-0.0014,-0.0029,-0.0032,-0.0035,-0.0046,-0.0046,-0.005,-0.0062,-0.0062,-0.0037,-0.0035,-0.0032,-0.0023,-0.0059,0,0,0,0,0,0.0015,0.0018,0.0013,0.0014,0.0014,0.0006,0.0004,0.0,-0.0007,-0.0009,-0.0019,-0.0029,-0.0037,-0.0039,-0.005,-0.0051,-0.0065,-0.0049,-0.0046,-0.0044,-0.0039,-0.0055,-0.0054,-0.0071,-0.0071,-0.0071,0,0,0.0017,0.0016,0.0017,0.0016,0.0012,0.0017,0.0005,0.0004,0.001,-0.0012,-0.0008,-0.0022,-0.0036,-0.0037,-0.0039,-0.0043,-0.0048,-0.0043,-0.0041,-0.0038,-0.0055,-0.0053,-0.0052,-0.0071,-0.0071,-0.0071,0,0,0.0024,0.0022,0.0029,0.0029,0.0028,0.0025,0.0027,0.0021,0.002,0.002,0.0006,-0.0002,-0.0013,-0.002,-0.0025,-0.0016,-0.0036,-0.002,0.0003,-0.0012,-0.0011,-0.001,-0.003,-0.0031,-0.0016,-0.0016,-0.0016,0,0.0027,0.0035,0.0029,0.0037,0.0042,0.0031,0.0042,0.004,0.0033,0.0035,0.0026,0.001,-0.0003,-0.0003,0.0001,-0.0009,-0.0024,-0.0006,-0.0009,-0.0008,-0.0007,-0.0028,-0.0029,-0.0014,-0.0014,-0.0015,-0.0015,0,0.0041,0.0049,0.0053,0.0063,0.0066,0.0072,0.0072,0.0075,0.0072,0.0069,0.0066,0.0045,0.0038,0.003,0.0019,0.0018,0.0004,-0.0006,-0.0015,-0.0004,-0.0026,-0.0028,-0.0012,-0.0012,-0.0013,-0.0013,0,0,0.0047,0.0061,0.0064,0.0075,0.0081,0.0087,0.01,0.0109,0.0122,0.0108,0.012,0.0099,0.0086,0.0079,0.006,0.0045,0.0033,0.0025,0.0024,0.0009,-0.0005,-0.0,-0.0002,0.0023,0.0023,0.0022,-0.0023,0,0.0061,0.0084,0.0087,0.0111,0.0124,0.0125,0.0141,0.0148,0.0148,0.0157,0.0135,0.0137,0.0105,0.0106,0.0085,0.005,0.003,0.0046,-0.0016,-0.0018,-0.0012,-0.0004,0.0022,-0.0024,-0.0025,-0.0025,-0.0026,0,0.0076,0.0091,0.0117,0.0143,0.015,0.0164,0.019,0.0204,0.0212,0.0213,0.0206,0.0189,0.0172,0.0143,0.0083,0.0096,0.0049,0.0015,0.0012,0.0004,-0.0016,-0.0038,-0.003,-0.0029,-0.0029,-0.0029,-0.0029,0,0.0086,0.0113,0.0136,0.0145,0.0171,0.0188,0.0206,0.0221,0.0245,0.0253,0.0269,0.0235,0.0229,0.0169,0.0099,0.0093,0.0027,0.0011,-0.0034,-0.0035,-0.0041,-0.0041,-0.0037,-0.0036,-0.0036,-0.0036,-0.0036,0,0.01,0.0119,0.0145,0.0159,0.0196,0.0209,0.0248,0.0262,0.0291,0.0328,0.0302,0.0314,0.0235,0.019,0.0116,0.0039,0.0039,-0.0027,-0.0042,-0.0027,-0.0025,-0.0043,-0.0043,-0.0038,-0.0038,-0.0037,-0.0037,0,0.0104,0.0121,0.0151,0.0186,0.0201,0.0229,0.0283,0.0315,0.0339,0.0387,0.0398,0.0375,0.0324,0.0236,0.0139,0.0069,-0.0009,-0.0041,-0.0015,-0.003,-0.0068,-0.0065,-0.0089,-0.009,-0.009,-0.009,-0.009,0,0.0107,0.0122,0.0169,0.0194,0.0212,0.0257,0.0295,0.0335,0.0376,0.0425,0.0452,0.0422,0.0395,0.0266,0.0159,0.0022,-0.0005,-0.0057,-0.0065,-0.0058,-0.0072,-0.0069,-0.0067,-0.009,-0.009,-0.009,-0.009,0,0.011,0.0127,0.0153,0.0208,0.0251,0.0306,0.0364,0.0402,0.0461,0.0478,0.0512,0.0458,0.0397,0.0283,0.0176,0.0072,-0.0025,-0.0058,-0.0059,-0.0068,-0.006,-0.0072,-0.007,-0.009,-0.009,-0.009,-0.009,0,0.0112,0.013,0.0169,0.022,0.0278,0.0351,0.0379,0.044,0.0486,0.0546,0.0548,0.0494,0.0453,0.0308,0.021,0.0113,0.0081,0.0031,0.0025,0.0024,0.0067,0.0095,0.0103,0,0,0,0,0,0.0113,0.0139,0.0182,0.0249,0.0311,0.0356,0.0428,0.0458,0.0513,0.0548,0.0558,0.051,0.0388,0.0327,0.0234,0.0186,0.0046,0.0069,-0.0018,-0.0093,-0.0092,-0.0061,0,0,0,0,0,0,0.0114,0.015,0.0178,0.0268,0.0324,0.0405,0.0459,0.0497,0.0519,0.0553,0.0491,0.0473,0.0348,0.0449,0.0231,0.02,0.0127,0.0013,0.0011,-0.0093,-0.0092,-0.0092,-0.006,0,0,0,0,0]}]]